TCX96Z EGCC-LGKO

Flight info

Callsign TCX96Z
Flight time N/A
Altitude 41000
Route SONEX UL975 DESIG L603 DOLAS DCT NAVPI DCT DODEN DCT NEGIX DCT DINKU DCT BESNI DCT LATLO DCT OBEDI DCT BERTA DCT TEBLI DCT TIVNU DCT MEDUX UM867 KOGAT DCT ERANA UL737 TSL UN130 MES UN139 LURUS L995 KOPAR
Aircraft A332/H-SDE3GHIJ2J3J5M1RVWXY/LB2D1

Departure

Time N/A
Airport Manchester Airport (EGCC)

Arrival

Time 2026-05-05 11:29
Airport Kos International Airport "Ippokratis" (LGKO)
Time Latitude Longitude Altitude Speed Heading
2026-05-05 10:24 42.29603 20.76037 41108 ft 505 kts 130°
2026-05-05 10:24 42.25090 20.83320 41109 ft 506 kts 130°
2026-05-05 10:25 42.20573 20.90591 41106 ft 506 kts 130°
2026-05-05 10:25 42.16071 20.97821 41106 ft 506 kts 130°
2026-05-05 10:26 42.11490 21.05025 41101 ft 506 kts 135°
2026-05-05 10:26 42.06440 21.11706 41102 ft 506 kts 137°
2026-05-05 10:27 42.01325 21.18212 41096 ft 506 kts 137°
2026-05-05 10:27 41.96185 21.24690 41098 ft 507 kts 137°
2026-05-05 10:28 41.91047 21.31164 41094 ft 507 kts 137°
2026-05-05 10:28 41.85942 21.37598 41094 ft 507 kts 137°
2026-05-05 10:29 41.80799 21.44070 41092 ft 507 kts 137°
2026-05-05 10:29 41.75655 21.50527 41093 ft 507 kts 137°
2026-05-05 10:30 41.70506 21.56976 41096 ft 507 kts 137°
2026-05-05 10:30 41.66223 21.62327 41098 ft 507 kts 137°
2026-05-05 10:31 41.61061 21.68765 41095 ft 508 kts 137°
2026-05-05 10:31 41.55888 21.75200 41093 ft 508 kts 137°
2026-05-05 10:32 41.50718 21.81618 41079 ft 508 kts 137°
2026-05-05 10:32 41.45534 21.88040 41092 ft 509 kts 137°
2026-05-05 10:33 41.40339 21.94459 41092 ft 510 kts 137°
2026-05-05 10:33 41.35137 22.00871 41090 ft 509 kts 137°
2026-05-05 10:34 41.29932 22.07272 41088 ft 509 kts 137°
2026-05-05 10:34 41.24730 22.13657 41097 ft 509 kts 137°
2026-05-05 10:35 41.19518 22.20039 41079 ft 509 kts 137°
2026-05-05 10:35 41.14244 22.26319 41077 ft 509 kts 140°
2026-05-05 10:36 41.08750 22.32259 41079 ft 509 kts 142°
2026-05-05 10:36 41.03204 22.38118 41065 ft 510 kts 142°
2026-05-05 10:37 40.97674 22.43992 41065 ft 510 kts 141°
2026-05-05 10:37 40.92190 22.49847 41062 ft 510 kts 141°
2026-05-05 10:38 40.86664 22.55748 41058 ft 510 kts 141°
2026-05-05 10:38 40.81147 22.61628 41059 ft 510 kts 141°
2026-05-05 10:39 40.75624 22.67498 41053 ft 510 kts 141°
2026-05-05 10:39 40.70093 22.73362 41050 ft 510 kts 141°
2026-05-05 10:40 40.64551 22.79225 41062 ft 511 kts 141°
2026-05-05 10:40 40.59010 22.85075 41049 ft 510 kts 141°
2026-05-05 10:41 40.53468 22.90913 41047 ft 510 kts 141°
2026-05-05 10:41 40.47929 22.96736 41047 ft 510 kts 141°
2026-05-05 10:42 40.40311 23.06463 41051 ft 510 kts 133°
2026-05-05 10:43 40.35430 23.13215 41056 ft 510 kts 133°
2026-05-05 10:43 40.30604 23.19912 41055 ft 508 kts 133°
2026-05-05 10:44 40.25733 23.26636 41059 ft 508 kts 133°
2026-05-05 10:44 40.20854 23.33337 41061 ft 508 kts 133°
2026-05-05 10:45 40.15975 23.40019 41064 ft 509 kts 133°
2026-05-05 10:45 40.11075 23.46714 41065 ft 510 kts 133°
2026-05-05 10:46 40.06169 23.53403 41066 ft 509 kts 133°
2026-05-05 10:46 40.01259 23.60085 41067 ft 509 kts 133°
2026-05-05 10:47 39.96354 23.66743 41071 ft 509 kts 133°
2026-05-05 10:47 39.91455 23.73380 41070 ft 509 kts 133°
2026-05-05 10:48 39.86537 23.80027 41072 ft 509 kts 133°
2026-05-05 10:48 39.81620 23.86658 41075 ft 509 kts 133°
2026-05-05 10:49 39.76696 23.93284 41075 ft 509 kts 134°
2026-05-05 10:49 39.71794 23.99866 41075 ft 509 kts 134°
2026-05-05 10:50 39.66868 24.06467 41074 ft 509 kts 134°
2026-05-05 10:50 39.61935 24.13062 41075 ft 509 kts 134°
2026-05-05 10:51 39.57006 24.19636 41074 ft 509 kts 134°
2026-05-05 10:51 39.52064 24.26215 41078 ft 510 kts 134°
2026-05-05 10:52 39.47113 24.32791 41080 ft 510 kts 134°
2026-05-05 10:52 39.42158 24.39358 41087 ft 510 kts 134°
2026-05-05 10:53 39.37202 24.45912 41080 ft 509 kts 134°
2026-05-05 10:53 39.32254 24.52460 41080 ft 509 kts 134°
2026-05-05 10:54 39.27332 24.59038 41080 ft 510 kts 133°
2026-05-05 10:54 39.22400 24.65634 41083 ft 510 kts 134°
2026-05-05 10:55 39.17469 24.72210 41085 ft 510 kts 134°
2026-05-05 10:55 39.12561 24.78734 41086 ft 510 kts 134°
2026-05-05 10:56 39.07598 24.85266 41086 ft 510 kts 134°
2026-05-05 10:56 39.02595 24.91752 41086 ft 510 kts 134°
2026-05-05 10:57 38.97591 24.98217 41084 ft 510 kts 134°
2026-05-05 10:57 38.92585 25.04679 41087 ft 510 kts 135°
2026-05-05 10:58 38.87576 25.11138 41088 ft 510 kts 135°
2026-05-05 10:58 38.82569 25.17584 41089 ft 510 kts 135°
2026-05-05 10:59 38.77559 25.24017 41089 ft 510 kts 135°
2026-05-05 10:59 38.72548 25.30440 41089 ft 510 kts 135°
2026-05-05 11:00 38.67521 25.36868 41090 ft 510 kts 135°
2026-05-05 11:00 38.62488 25.43292 41092 ft 511 kts 135°
2026-05-05 11:01 38.57448 25.49709 41090 ft 511 kts 135°
2026-05-05 11:01 38.52420 25.56099 41088 ft 511 kts 135°
2026-05-05 11:02 38.47397 25.62470 41089 ft 511 kts 135°
2026-05-05 11:02 38.42352 25.68854 41089 ft 510 kts 135°
2026-05-05 11:03 38.37312 25.75220 41088 ft 511 kts 135°
2026-05-05 11:03 38.32268 25.81599 41083 ft 511 kts 135°
2026-05-05 11:04 38.27140 25.87868 41083 ft 511 kts 142°
2026-05-05 11:04 38.21071 25.92420 40605 ft 507 kts 158°
2026-05-05 11:04 38.17794 25.94108 39963 ft 508 kts 161°
2026-05-05 11:05 38.14475 25.95654 39361 ft 509 kts 162°
2026-05-05 11:05 38.11141 25.97135 38833 ft 507 kts 163°
2026-05-05 11:05 38.07804 25.98597 38279 ft 505 kts 163°
2026-05-05 11:05 38.04497 26.00052 37787 ft 502 kts 163°
2026-05-05 11:06 38.01214 26.01511 37304 ft 499 kts 162°
2026-05-05 11:06 37.97949 26.02975 36837 ft 496 kts 162°
2026-05-05 11:06 37.94699 26.04442 36343 ft 494 kts 162°
2026-05-05 11:06 37.91471 26.05903 35853 ft 492 kts 162°
2026-05-05 11:07 37.88257 26.07359 35341 ft 490 kts 162°
2026-05-05 11:07 37.85050 26.08811 34854 ft 488 kts 162°
2026-05-05 11:07 37.81845 26.10261 34173 ft 491 kts 162°
2026-05-05 11:07 37.78615 26.11719 33222 ft 496 kts 162°
2026-05-05 11:08 37.75347 26.13192 32298 ft 501 kts 162°
2026-05-05 11:08 37.72047 26.14678 31351 ft 505 kts 162°
2026-05-05 11:08 37.68718 26.16176 30403 ft 510 kts 162°
2026-05-05 11:08 37.65434 26.17653 29699 ft 506 kts 162°
2026-05-05 11:09 37.62094 26.19155 28992 ft 501 kts 162°
2026-05-05 11:09 37.58874 26.20602 28327 ft 495 kts 162°
2026-05-05 11:09 37.55642 26.22053 27648 ft 490 kts 162°
2026-05-05 11:09 37.52450 26.23484 26981 ft 485 kts 162°
2026-05-05 11:10 37.49289 26.24899 26316 ft 480 kts 162°
2026-05-05 11:10 37.46156 26.26301 25655 ft 475 kts 162°
2026-05-05 11:10 37.43059 26.27685 24982 ft 470 kts 163°
2026-05-05 11:10 37.39988 26.29055 24308 ft 465 kts 163°
2026-05-05 11:11 37.36954 26.30408 23657 ft 460 kts 163°
2026-05-05 11:11 37.33943 26.31750 22885 ft 455 kts 163°
2026-05-05 11:11 37.30983 26.33067 22236 ft 449 kts 163°
2026-05-05 11:11 37.28057 26.34369 21580 ft 443 kts 162°
2026-05-05 11:12 37.25174 26.35650 20934 ft 437 kts 162°
2026-05-05 11:12 37.22321 26.36916 20299 ft 432 kts 162°
2026-05-05 11:12 37.19503 26.38166 19664 ft 428 kts 162°
2026-05-05 11:12 37.16744 26.39390 19031 ft 425 kts 162°
2026-05-05 11:13 37.13970 26.40620 18407 ft 421 kts 162°
2026-05-05 11:13 37.11222 26.41838 17730 ft 417 kts 162°
2026-05-05 11:13 37.08501 26.43042 17120 ft 412 kts 162°
2026-05-05 11:13 37.05813 26.44231 16508 ft 408 kts 161°
2026-05-05 11:14 37.03147 26.45410 15914 ft 404 kts 161°
2026-05-05 11:14 37.00506 26.46577 15312 ft 401 kts 161°
2026-05-05 11:14 36.97876 26.47738 14706 ft 399 kts 160°
2026-05-05 11:14 36.95272 26.48886 14109 ft 396 kts 160°
2026-05-05 11:15 36.92689 26.50044 13463 ft 392 kts 157°
2026-05-05 11:15 36.90329 26.51671 12832 ft 384 kts 141°
2026-05-05 11:15 36.88467 26.53991 12260 ft 375 kts 123°
2026-05-05 11:15 36.87207 26.56785 11678 ft 367 kts 112°
2026-05-05 11:16 36.86186 26.59630 11500 ft 349 kts 110°
2026-05-05 11:16 36.85252 26.62335 11413 ft 330 kts 109°
2026-05-05 11:16 36.84371 26.64900 11300 ft 314 kts 109°
2026-05-05 11:16 36.83523 26.67354 11156 ft 302 kts 110°
2026-05-05 11:17 36.82450 26.69576 10991 ft 297 kts 124°
2026-05-05 11:17 36.81117 26.71554 10620 ft 299 kts 128°
2026-05-05 11:17 36.79716 26.73482 10234 ft 300 kts 129°
2026-05-05 11:17 36.78781 26.74756 9983 ft 300 kts 129°
2026-05-05 11:18 36.77375 26.76676 9598 ft 300 kts 129°
2026-05-05 11:18 36.75974 26.78593 9236 ft 298 kts 128°
2026-05-05 11:18 36.74585 26.80498 8871 ft 296 kts 128°
2026-05-05 11:18 36.73191 26.82413 8512 ft 299 kts 128°
2026-05-05 11:19 36.71792 26.84335 8155 ft 300 kts 128°
2026-05-05 11:19 36.70393 26.86258 7785 ft 299 kts 127°
2026-05-05 11:19 36.69169 26.88319 7433 ft 292 kts 115°
2026-05-05 11:19 36.68220 26.90532 7057 ft 288 kts 110°
2026-05-05 11:20 36.67332 26.92768 6703 ft 287 kts 110°
2026-05-05 11:20 36.66454 26.94998 6346 ft 286 kts 110°
2026-05-05 11:20 36.65578 26.97212 5979 ft 284 kts 110°
2026-05-05 11:20 36.64703 26.99412 5639 ft 281 kts 110°
2026-05-05 11:21 36.63844 27.01557 5368 ft 273 kts 110°
2026-05-05 11:21 36.63006 27.03642 5108 ft 266 kts 110°
2026-05-05 11:21 36.62186 27.05679 4880 ft 260 kts 110°
2026-05-05 11:21 36.61387 27.07667 4610 ft 255 kts 111°
2026-05-05 11:22 36.60608 27.09607 4343 ft 251 kts 111°
2026-05-05 11:22 36.59845 27.11538 4083 ft 246 kts 108°
2026-05-05 11:22 36.59544 27.13544 3838 ft 231 kts 77°
2026-05-05 11:22 36.59944 27.15437 3581 ft 224 kts 64°
2026-05-05 11:23 36.60504 27.17245 3328 ft 223 kts 62°
2026-05-05 11:23 36.61105 27.19034 3101 ft 224 kts 57°
2026-05-05 11:23 36.62027 27.20471 3011 ft 201 kts 29°
2026-05-05 11:23 36.63237 27.21033 2989 ft 179 kts 360°
2026-05-05 11:24 36.64429 27.20784 2926 ft 171 kts 340°
2026-05-05 11:24 36.65459 27.20114 2723 ft 165 kts 327°
2026-05-05 11:24 36.66408 27.19329 2500 ft 162 kts 326°
2026-05-05 11:24 36.67300 27.18543 2270 ft 151 kts 326°
2026-05-05 11:25 36.68134 27.17852 2125 ft 138 kts 327°
2026-05-05 11:25 36.68909 27.17216 1989 ft 128 kts 326°
2026-05-05 11:25 36.69617 27.16643 1797 ft 119 kts 328°
2026-05-05 11:25 36.70314 27.16152 1645 ft 111 kts 330°
2026-05-05 11:26 36.70989 27.15688 1586 ft 111 kts 330°
2026-05-05 11:26 36.71661 27.15200 1571 ft 112 kts 328°
2026-05-05 11:26 36.72323 27.14679 1522 ft 112 kts 327°
2026-05-05 11:26 36.72981 27.14151 1469 ft 112 kts 328°
2026-05-05 11:27 36.73652 27.13644 1457 ft 113 kts 328°
2026-05-05 11:27 36.74318 27.13128 1353 ft 113 kts 327°
2026-05-05 11:27 36.74972 27.12597 1189 ft 111 kts 328°
2026-05-05 11:27 36.75633 27.12094 1055 ft 112 kts 329°
2026-05-05 11:28 36.76295 27.11580 902 ft 112 kts 329°
2026-05-05 11:28 36.76953 27.11062 738 ft 112 kts 329°
2026-05-05 11:28 36.77622 27.10539 624 ft 118 kts 330°
2026-05-05 11:28 36.78316 27.10000 462 ft 118 kts 330°
2026-05-05 11:29 36.79007 27.09466 401 ft 107 kts 329°
2026-05-05 11:29 36.79466 27.09107 411 ft 57 kts 328°
2026-05-05 11:29 36.79765 27.08875 412 ft 46 kts 328°
2026-05-05 11:29 36.80020 27.08683 410 ft 39 kts 325°
2026-05-05 11:30 36.80213 27.08527 411 ft 25 kts 328°
2026-05-05 11:30 36.80346 27.08452 423 ft 13 kts 17°
2026-05-05 11:30 36.80354 27.08530 419 ft 10 kts 104°
2026-05-05 11:30 36.80334 27.08629 414 ft 12 kts 104°
2026-05-05 11:31 36.80281 27.08721 414 ft 15 kts 134°
2026-05-05 11:31 36.80212 27.08780 421 ft 12 kts 153°
2026-05-05 11:31 36.80127 27.08834 413 ft 12 kts 151°
2026-05-05 11:31 36.80086 27.08875 411 ft 5 kts 114°
2026-05-05 11:32 36.80095 27.08918 411 ft 6 kts 63°
2026-05-05 11:32 36.80106 27.08943 414 ft 0 kts 59°